• Join FlightAware (Why Join?)
  • Login
  • US Flag 
12:43PM EST


 

Airport Tracker/Info


-or-


 

Live Flight TrackerFlight Track Log ✈ N641BB ✈ 17-Jul-2013 ✈ KTYS - KPBX

Flight Track Log - Related Links

Times and Time Zones

All times are in EDT time to prevent confusion due to time zone crossing. See the N641BB flight status page for this flight to view local times or setup timezone preferences in your user account.

Time Position Orientation Groundspeed Altitude Reporting Facility
EDT Latitude Longitude Course Direction KTS MPH feet Rate Location/Type
07:35PM 35.8281 -83.9772 355° North 98 113 1,600  Level Indianapolis Center
07:36PM 35.8567 -83.9900 340° North 116 133 2,100 420 Climbing Indianapolis Center
07:37PM 35.8861 -83.9936 354° North 110 127 2,500 360 Climbing Indianapolis Center
07:38PM 35.9169 -83.9986 353° North 109 125 2,900 360 Climbing Indianapolis Center
07:39PM 35.9464 -84.0067 348° North 109 125 3,300 480 Climbing Indianapolis Center
07:40PM 35.9833 -84.0128 352° North 111 128 3,900 540 Climbing Indianapolis Center
07:41PM 36.0565 -84.0044 355° North  Level FlightAware Approximate
07:41PM 36.0119 -84.0192 350° North 107 123 4,500  Level Indianapolis Center
07:42PM 36.0419 -84.0239 353° North 108 124 5,000 240 Climbing Indianapolis Center
07:43PM 36.0761 -84.0258 357° North 117 135 5,100  Climbing Indianapolis Center
07:44PM 36.1133 -84.0256 360° North 128 147 5,100 120 Level Indianapolis Center
07:45PM 36.1481 -84.0311 353° North 141 162 5,400 300 Climbing Atlanta Center
07:46PM 36.1817 -84.0317 359° North 122 140 5,800 240 Climbing Indianapolis Center
07:47PM 36.2261 -84.0356 356° North 129 148 6,000 120 Climbing Indianapolis Center
07:49PM 36.2650 -84.0372 358° North 136 157 6,100  Climbing Indianapolis Center
07:50PM 36.3053 -84.0400 357° North 142 163 6,000 -60 Descending Indianapolis Center
07:51PM 36.3456 -84.0433 356° North 145 167 6,000  Level Indianapolis Center
07:52PM 36.3844 -84.0469 356° North 142 163 6,000  Level Indianapolis Center
07:53PM 36.4244 -84.0500 356° North 143 165 6,000  Level Indianapolis Center
07:54PM 36.4625 -84.0553 354° North 141 162 6,000  Level Indianapolis Center
07:55PM 36.5072 -84.0583 357° North 135 155 6,000  Level Indianapolis Center
07:56PM 36.5439 -84.0617 356° North 136 157 6,000  Level Indianapolis Center
07:57PM 36.5808 -84.0653 356° North 134 154 6,000  Level Indianapolis Center
07:58PM 36.6172 -84.0681 356° North 133 153 6,000  Level Indianapolis Center
07:59PM 36.6531 -84.0708 356° North 131 151 6,000  Level Indianapolis Center
08:00PM 36.6944 -84.0647 North 138 159 6,000  Level Indianapolis Center
08:01PM 36.7122 -84.0278 59° Northeast 128 147 6,000  Level Indianapolis Center
08:02PM 36.7350 -83.9933 50° Northeast 129 148 6,000  Level Indianapolis Center
08:03PM 36.7567 -83.9569 53° Northeast 130 150 6,000  Level Indianapolis Center
08:04PM 36.7767 -83.9200 56° Northeast 129 148 6,000  Level Indianapolis Center
08:05PM 36.8025 -83.8781 52° Northeast 130 150 6,000  Level Indianapolis Center
08:06PM 36.8239 -83.8419 53° Northeast 130 150 6,000  Level Indianapolis Center
08:07PM 36.8453 -83.8050 54° Northeast 131 151 6,000  Level Indianapolis Center
08:08PM 36.8669 -83.7681 54° Northeast 131 151 6,000  Level Indianapolis Center
08:09PM 36.8886 -83.7311 54° Northeast 132 152 6,000  Level Indianapolis Center
08:10PM 36.9103 -83.6936 54° Northeast 131 151 6,000  Level Indianapolis Center
08:11PM 36.9322 -83.6564 54° Northeast 133 153 6,000  Level Indianapolis Center
08:12PM 36.9569 -83.6131 54° Northeast 132 152 6,000  Level Indianapolis Center
08:13PM 36.9789 -83.5767 53° Northeast 132 152 6,000  Level Indianapolis Center
08:14PM 36.9994 -83.5397 55° Northeast 130 150 6,000  Level Indianapolis Center
08:15PM 37.0211 -83.5042 53° Northeast 129 148 6,000  Level Indianapolis Center
08:16PM 37.0414 -83.4681 55° Northeast 128 147 6,000  Level Indianapolis Center
08:17PM 37.0636 -83.4319 52° Northeast 129 148 6,000  Level Indianapolis Center
08:18PM 37.0881 -83.3889 55° Northeast 130 150 6,000  Level Indianapolis Center
08:19PM 37.1094 -83.3522 54° Northeast 129 148 6,000  Level Indianapolis Center
08:20PM 37.1300 -83.3153 55° Northeast 129 148 6,000  Level Indianapolis Center
08:21PM 37.1514 -83.2783 54° Northeast 130 150 6,000 -120 Level Indianapolis Center
08:23PM 37.1736 -83.2419 53° Northeast 130 150 5,800 -300 Descending Indianapolis Center
08:25PM 37.2200 -83.1600 55° Northeast 141 162 5,200 -360 Descending Indianapolis Center
08:26PM 37.2467 -83.1136 54° Northeast 141 162 4,800 -360 Descending Indianapolis Center
08:27PM 37.2697 -83.0733 54° Northeast 142 163 4,500 -180 Descending Indianapolis Center
08:28PM 37.2928 -83.0353 53° Northeast 140 161 4,500  Level Indianapolis Center
08:29PM 37.3131 -82.9992 55° Northeast 133 153 4,500  Level Indianapolis Center
08:30PM 37.3344 -82.9636 53° Northeast 129 148 4,500  Level Indianapolis Center
08:31PM 37.3542 -82.9275 56° Northeast 127 146 4,500  Level Indianapolis Center
08:32PM 37.3786 -82.8853 54° Northeast 127 146 4,500  Level Indianapolis Center
08:33PM 37.3989 -82.8497 54° Northeast 127 146 4,500  Level Indianapolis Center
08:34PM 37.4189 -82.8147 54° Northeast 124 143 4,500  Level Indianapolis Center
08:35PM 37.4400 -82.7797 53° Northeast 125 144 4,500  Level Indianapolis Center
08:36PM 37.4586 -82.7439 57° Northeast 123 142 4,500  Level Indianapolis Center